FW2451 Weather Reports


time (UTC)temp
C
wind
direction
speed
KPH
gust
KPH
rain 1hr
cm
rain 24hr
cm
rain mn
cm
humidity
%
barometer
mb
20260503193037 17 184 4.8 11.3 0.00 0.00 0.00 60 1014.4
20260503191535 17 177 6.4 12.9 0.00 0.00 0.00 62 1014.6
20260503190038 16 183 4.8 14.5 0.00 0.00 0.00 62 1014.6
20260503184528 16 197 4.8 9.7 0.00 0.00 0.00 62 1014.7
20260503183029 16 202 3.2 11.3 0.00 0.00 0.00 65 1014.7
20260503181527 15 176 3.2 11.3 0.00 0.00 0.00 67 1014.8
20260503180029 15 190 6.4 12.9 0.00 0.00 0.00 70 1014.9
20260503174520 15 221 4.8 19.3 0.00 0.00 0.00 70 1014.8
20260503173037 16 181 6.4 12.9 0.00 0.00 0.00 69 1014.6
20260503171521 16 184 4.8 11.3 0.00 0.00 0.00 69 1014.4
20260503140113 12 144 0.0 6.4 0.00 0.00 0.00 81 1013.5
20260503081545 13 15 0.0 6.4 0.00 0.00 0.00 78 1013.1
20260503071541 13 28 3.2 6.4 0.00 0.00 0.00 77 1013.4
20260503054535 13 9 1.6 9.7 0.00 0.00 0.00 76 1013.7
20260503053031 13 9 1.6 9.7 0.00 0.00 0.00 76 1013.9
20260503051531 13 350 0.0 12.9 0.00 0.00 0.00 77 1014.0
20260503050028 13 26 3.2 9.7 0.00 0.00 0.00 76 1013.8
20260503044529 13 321 3.2 16.1 0.00 0.00 0.00 76 1013.9
20260503043026 13 282 3.2 17.7 0.00 0.00 0.00 77 1013.7
20260503041526 13 11 4.8 9.7 0.00 0.00 0.00 76 1013.5
20260503040100 13 13 6.4 14.5 0.00 0.00 0.00 76 1013.3
20260503034555 14 14 4.8 14.5 0.00 0.00 0.00 76 1013.1
20260503033105 14 9 3.2 14.5 0.00 0.00 0.00 76 1013.1
20260503031552 14 9 3.2 16.1 0.00 0.00 0.00 76 1013.0
20260503030052 14 355 1.6 19.3 0.00 0.00 0.00 76 1012.9
20260503024554 15 314 6.4 12.9 0.00 0.00 0.00 75 1012.7
20260503023039 15 331 3.2 12.9 0.00 0.00 0.00 74 1012.5
20260503021521 15 9 3.2 16.1 0.00 0.00 0.00 74 1012.4
20260503020049 16 11 8.0 20.9 0.00 0.00 0.00 73 1012.4
20260503014549 16 9 4.8 14.5 0.00 0.00 0.00 72 1012.5
20260503013046 16 345 6.4 24.1 0.00 0.00 0.00 72 1012.5
20260503011559 16 36 6.4 17.7 0.00 0.00 0.00 71 1012.6
20260503010053 17 329 8.0 19.3 0.00 0.00 0.00 70 1012.6
20260503004544 17 316 4.8 16.1 0.00 0.00 0.00 70 1012.5
20260503003057 17 9 8.0 17.7 0.00 0.00 0.00 69 1012.5
20260503001540 18 9 4.8 16.1 0.00 0.00 0.00 67 1012.4
20260503000058 18 344 9.7 19.3 0.00 0.00 0.00 65 1012.6
20260502234543 19 27 6.4 24.1 0.00 0.00 0.00 64 1012.6
20260502233039 20 49 9.7 24.1 0.00 0.00 0.00 63 1012.6
20260502231537 20 293 8.0 20.9 0.00 0.00 0.00 61 1012.7
20260502230033 21 70 1.6 17.7 0.00 0.00 0.00 61 1012.8
20260502224531 21 9 6.4 19.3 0.00 0.00 0.00 60 1012.9
20260502223029 21 348 3.2 19.3 0.00 0.00 0.00 60 1013.1
20260502221526 21 5 6.4 16.1 0.00 0.00 0.00 60 1013.4
20260502220025 21 76 6.4 17.7 0.00 0.00 0.00 61 1013.5
20260502214524 21 346 3.2 17.7 0.00 0.00 0.00 60 1013.6
20260502213028 22 22 1.6 12.9 0.00 0.00 0.00 60 1013.6
20260502211555 21 304 3.2 16.1 0.00 0.00 0.00 61 1013.7
20260502210051 21 61 1.6 9.7 0.00 0.00 0.00 59 1013.9
20260502204546 21 193 4.8 9.7 0.00 0.00 0.00 60 1014.1
20260502203042 20 148 3.2 11.3 0.00 0.00 0.00 62 1014.3
20260502201540 20 169 1.6 12.9 0.00 0.00 0.00 64 1014.7
20260502200043 19 57 1.6 9.7 0.00 0.00 0.00 66 1015.0
20260502194534 18 44 1.6 8.0 0.00 0.00 0.00 68 1015.1